Weather History for Caldwell, NJ

Change the Weather History Date:

Saturday, January 4, 2014

  Actual Average Record
Temperature  
Mean Temperature 12 °F -  
Max Temperature 24 °F 37 °F 66 °F (2000)
Min Temperature 0 °F 20 °F -5 °F (1981)
Degree Days  
Heating Degree Days 53    
Moisture  
Dew Point -1 °F    
Average Humidity 60    
Maximum Humidity 80    
Minimum Humidity 35    
Precipitation  
Precipitation 0.00 in - - ()
Sea Level Pressure  
Sea Level Pressure 30.46 in    
Wind  
Wind Speed 2 mph (SW)    
Max Wind Speed 9 mph    
Max Gust Speed -    
Visibility 10 miles    
Events      
Averages and records for this station are not official NWS values.
T = Trace of Precipitation, MM = Missing Value Source: NWS Daily Summary

Daily Weather History Graph

Daily Weather History Graph

Search for Another Location

Airport:

Trip Planner

Search our weather history database for the weather conditions in past years. The results will help you decide how hot, cold, wet, or windy it might be!

Date:

Astronomy

Jan. 04, 2014 Rise Set
Actual Time 7:21 AM EST 4:42 PM EST
Civil Twilight 6:51 AM EST 5:13 PM EST
Nautical Twilight 6:16 AM EST 5:47 PM EST
Astronomical Twilight 5:43 AM EST 6:21 PM EST
Moon 9:24 AM EST (1/4) 9:01 PM EST (1/4)
Length of Visible Light 10h 22m
Length of Day
9h 20m
Waxing Crescent, 15% of the Moon is Illuminated
Jan 4
Waxing Crescent
Jan 7
First Quarter
Jan 15
Full
Jan 24
Last Quarter
Jan 30
New

Hourly Weather History & Observations

Time (EST) Temp. Windchill Dew Point Humidity Pressure Visibility Wind Dir Wind Speed Gust Speed Precip Events Conditions
12:53 AM 1.9 °F - -5.1 °F 72% 30.51 in 10.0 mi Calm Calm - N/A   Clear
1:53 AM -0.0 °F - -6.0 °F 76% 30.51 in 10.0 mi Calm Calm - N/A   Clear
2:53 AM 1.0 °F - -5.1 °F 75% 30.52 in 10.0 mi Calm Calm - N/A   Clear
3:53 AM -0.0 °F - -5.1 °F 79% 30.51 in 10.0 mi Calm Calm - N/A   Clear
4:53 AM -0.0 °F - -5.1 °F 79% 30.52 in 10.0 mi Calm Calm - N/A   Clear
5:53 AM 1.0 °F - -4.0 °F 79% 30.53 in 10.0 mi Calm Calm - N/A   Scattered Clouds
6:53 AM 1.9 °F -5.6 °F -4.0 °F 76% 30.56 in 10.0 mi South 3.5 mph - N/A   Clear
7:53 AM 3.9 °F - -4.0 °F 70% 30.56 in 10.0 mi Calm Calm - N/A   Clear
8:53 AM 7.0 °F 0.1 °F -2.9 °F 64% 30.56 in 10.0 mi Variable 3.5 mph - N/A   Clear
9:53 AM 10.0 °F 1.8 °F -2.9 °F 56% 30.56 in 10.0 mi SSW 4.6 mph - N/A   Clear
10:53 AM 15.1 °F 6.4 °F -4.0 °F 43% 30.53 in 10.0 mi Variable 5.8 mph - N/A   Clear
11:53 AM 19.0 °F 11.1 °F -2.0 °F 40% 30.48 in 10.0 mi West 5.8 mph - N/A   Clear
12:53 PM 21.9 °F 13.4 °F -2.0 °F 35% 30.45 in 10.0 mi SW 6.9 mph - N/A   Clear
1:53 PM 23.0 °F 13.1 °F -0.9 °F 35% 30.43 in 10.0 mi WSW 9.2 mph - N/A   Clear
2:53 PM 24.1 °F 19.7 °F -0.0 °F 35% 30.41 in 10.0 mi WSW 3.5 mph - N/A   Clear
3:53 PM 24.1 °F 18.2 °F 1.9 °F 38% 30.40 in 10.0 mi SSW 4.6 mph - N/A   Clear
4:53 PM 23.0 °F 17.0 °F 3.9 °F 44% 30.37 in 10.0 mi South 4.6 mph - N/A   Clear
5:53 PM 21.9 °F - 3.9 °F 46% 30.37 in 10.0 mi Calm Calm - N/A   Clear
6:53 PM 21.9 °F - 3.9 °F 46% 30.37 in 10.0 mi Calm Calm - N/A   Clear
7:53 PM 16.0 °F - 6.1 °F 65% 30.38 in 10.0 mi Calm Calm - N/A   Clear
8:53 PM 14.0 °F - 5.0 °F 67% 30.37 in 10.0 mi Calm Calm - N/A   Clear
9:53 PM 10.9 °F - 3.9 °F 73% 30.36 in 10.0 mi Calm Calm - N/A   Clear
10:53 PM 10.9 °F - 3.9 °F 73% 30.35 in 10.0 mi Calm Calm - N/A   Clear
11:53 PM 9.0 °F - 3.9 °F 80% 30.34 in 10.0 mi Calm Calm - N/A   Clear